TimeEDT,TemperatureF,Dew PointF,Humidity,Sea Level PressureIn,VisibilityMPH,Wind Direction,Wind SpeedMPH,Gust SpeedMPH,PrecipitationIn,Events,Conditions,WindDirDegrees,DateUTC
12:53 AM,57.9,41.0,53,29.81,10.0,South,19.6,29.9,0.00,Rain,Light Rain,190,2013-03-11 04:53:00
1:53 AM,55.9,42.1,60,29.80,10.0,South,17.3,34.5,0.01,,Overcast,180,2013-03-11 05:53:00
2:53 AM,52.0,45.0,77,29.80,8.0,South,18.4,28.8,0.07,Rain,Light Rain,190,2013-03-11 06:53:00
3:53 AM,53.1,45.0,74,29.77,10.0,South,19.6,31.1,0.00,,Overcast,180,2013-03-11 07:53:00
4:53 AM,52.0,46.9,83,29.74,10.0,South,24.2,33.4,0.02,Rain,Light Rain,180,2013-03-11 08:53:00
6:33 AM,51.8,44.6,76,29.75,10.0,South,19.6,24.2,0.00,,Overcast,180,2013-03-11 10:33:00
6:53 AM,52.0,45.0,77,29.74,10.0,South,21.9,27.6,0.00,,Overcast,170,2013-03-11 10:53:00
7:01 AM,51.8,44.6,76,29.73,9.0,South,24.2,36.8,0.00,Rain,Light Rain,170,2013-03-11 11:01:00
7:53 AM,51.1,48.9,92,29.71,9.0,SSE,26.5,36.8,0.04,Rain,Light Rain,160,2013-03-11 11:53:00
8:53 AM,50.0,48.9,96,29.75,7.0,South,24.2,29.9,0.05,Rain,Light Rain,170,2013-03-11 12:53:00
9:53 AM,50.0,48.9,96,29.72,10.0,SSE,17.3,26.5,0.03,,Overcast,160,2013-03-11 13:53:00
10:53 AM,52.0,45.0,77,29.68,10.0,SSE,18.4,28.8,N/A,,Overcast,150,2013-03-11 14:53:00
11:53 AM,52.0,46.0,80,29.65,10.0,SSE,20.7,26.5,0.00,Rain,Light Rain,160,2013-03-11 15:53:00
12:53 PM,51.1,46.9,86,29.61,8.0,SSE,19.6,31.1,0.02,Rain,Light Rain,160,2013-03-11 16:53:00
1:02 PM,51.8,46.4,82,29.61,6.0,SSE,19.6,27.6,0.01,Rain,Light Rain,160,2013-03-11 17:02:00
1:26 PM,51.8,46.4,82,29.58,8.0,SSE,21.9,-,0.02,Rain,Light Rain,160,2013-03-11 17:26:00
1:53 PM,52.0,46.9,83,29.56,9.0,SSE,25.3,32.2,0.03,Rain,Light Rain,160,2013-03-11 17:53:00
2:04 PM,53.6,46.4,77,29.56,10.0,South,25.3,34.5,0.00,Rain,Light Rain,170,2013-03-11 18:04:00
2:53 PM,54.0,48.9,83,29.52,7.0,South,25.3,34.5,0.01,Rain,Light Rain,180,2013-03-11 18:53:00
3:12 PM,53.6,48.2,82,29.55,1.8,SSW,19.6,33.4,0.07,Rain,Rain,210,2013-03-11 19:12:00
3:16 PM,51.8,48.2,88,29.56,3.0,SW,28.8,34.5,0.07,Rain,Light Rain,230,2013-03-11 19:16:00
3:25 PM,48.2,44.6,87,29.56,6.0,West,24.2,38.0,0.08,Rain,Light Rain,260,2013-03-11 19:25:00
3:41 PM,48.2,44.6,87,29.58,7.0,WSW,23.0,28.8,0.09,Rain,Light Rain,250,2013-03-11 19:41:00
3:53 PM,48.0,45.0,89,29.58,4.0,WSW,19.6,-,0.13,Rain,Rain,250,2013-03-11 19:53:00
4:26 PM,48.2,42.8,82,29.58,8.0,SW,17.3,23.0,0.01,Rain,Light Rain,230,2013-03-11 20:26:00
4:34 PM,48.2,44.6,87,29.58,9.0,SW,15.0,24.2,0.01,Rain,Light Rain,220,2013-03-11 20:34:00
4:53 PM,48.9,43.0,80,29.59,10.0,SW,18.4,-,0.02,,Overcast,220,2013-03-11 20:53:00
5:13 PM,48.2,42.8,82,29.60,10.0,West,24.2,33.4,N/A,,Overcast,270,2013-03-11 21:13:00
5:53 PM,46.9,39.9,77,29.63,10.0,WSW,20.7,31.1,N/A,,Overcast,250,2013-03-11 21:53:00
6:03 PM,46.4,39.2,76,29.63,10.0,WSW,20.7,28.8,N/A,,Overcast,250,2013-03-11 22:03:00
6:53 PM,43.0,37.9,82,29.68,10.0,WSW,19.6,25.3,N/A,,Overcast,250,2013-03-11 22:53:00
7:25 PM,41.0,35.6,81,29.68,8.0,West,19.6,32.2,0.00,Rain,Light Rain,260,2013-03-11 23:25:00
7:44 PM,41.0,35.6,81,29.69,10.0,WSW,17.3,27.6,0.00,,Overcast,250,2013-03-11 23:44:00
7:53 PM,41.0,35.1,79,29.70,10.0,WSW,18.4,29.9,0.00,,Overcast,250,2013-03-11 23:53:00
8:53 PM,39.0,34.0,82,29.74,10.0,West,23.0,27.6,N/A,,Overcast,260,2013-03-12 00:53:00
9:53 PM,37.9,32.0,79,29.77,10.0,WSW,20.7,25.3,N/A,,Overcast,240,2013-03-12 01:53:00
10:07 PM,37.4,32.0,81,29.76,10.0,WSW,18.4,28.8,N/A,,Overcast,250,2013-03-12 02:07:00
10:53 PM,37.9,30.9,76,29.79,10.0,WSW,18.4,28.8,N/A,,Overcast,250,2013-03-12 02:53:00
11:37 PM,35.6,30.2,81,29.79,10.0,WSW,17.3,26.5,N/A,,Overcast,250,2013-03-12 03:37:00
11:53 PM,36.0,30.9,82,29.81,10.0,WSW,16.1,-,N/A,,Overcast,250,2013-03-12 03:53:00